Date,TemperatureHighF,TemperatureAvgF,TemperatureLowF,DewpointHighF,DewpointAvgF,DewpointLowF,HumidityHigh,HumidityAvg,HumidityLow,PressureMaxIn,PressureMinIn,WindSpeedMaxMPH,WindSpeedAvgMPH,GustSpeedMaxMPH,PrecipitationSumIn
2013-1-1,34.8,29.4,16.0,27.1,18.5,6.0,78,64,51,29.91,29.69,13,2,30,0.00
2013-1-2,29.6,18.3,9.5,19.5,8.9,-0.3,76,67,57,30.09,29.88,7,1,16,0.00
2013-1-3,25.5,13.3,1.8,10.1,1.6,-5.5,71,60,37,30.12,29.98,2,0,7,0.00
2013-1-4,37.3,27.8,16.3,25.8,19.7,9.9,83,72,59,29.97,29.79,6,1,15,0.00
2013-1-5,41.1,33.0,23.7,26.8,21.2,15.7,74,62,44,30.24,29.82,7,1,20,0.00
2013-1-6,41.1,31.8,23.7,29.5,24.7,16.2,88,75,61,30.20,29.92,5,0,13,0.00
2013-1-7,38.6,31.6,25.2,27.7,22.7,15.9,86,71,48,30.38,29.94,3,0,13,0.00
2013-1-8,43.8,33.7,23.5,29.0,24.7,17.1,83,70,54,30.35,30.25,6,0,13,0.00
2013-1-9,42.3,34.9,25.7,34.3,27.6,22.1,92,75,57,30.38,29.98,6,0,23,0.00
2013-1-10,46.1,39.7,31.9,29.9,26.0,23.4,72,58,46,30.52,30.01,12,3,31,0.00
2013-1-11,38.8,33.1,26.8,33.9,26.7,21.7,93,78,65,30.51,30.20,2,0,5,0.04
2013-1-12,40.4,37.8,34.6,39.1,36.4,33.1,95,94,93,30.20,30.10,1,0,3,0.00
2013-1-13,48.3,43.9,39.1,47.2,42.7,37.8,100,96,95,30.13,29.97,3,0,7,0.00
2013-1-14,58.6,48.4,39.3,51.7,41.9,28.6,96,80,51,30.23,29.84,7,1,17,0.00
2013-1-15,41.1,36.3,30.8,29.2,26.0,23.6,83,66,54,30.30,30.20,2,0,7,0.00
2013-1-16,33.0,31.8,29.4,30.7,28.6,24.8,93,88,75,30.23,29.80,0,0,0,0.42
2013-1-17,39.9,32.6,26.3,33.5,26.9,13.5,97,80,54,30.08,29.80,7,1,14,0.00
2013-1-18,27.9,20.6,14.9,13.7,4.5,-0.1,61,50,36,30.42,30.04,9,1,16,0.00
2013-1-19,46.1,34.8,19.7,31.2,22.1,8.0,73,60,45,30.35,29.85,8,1,17,0.00
2013-1-20,50.7,39.6,27.1,32.5,26.7,12.2,75,61,40,29.90,29.51,10,3,24,0.00
2013-1-21,27.3,23.6,19.0,19.1,11.9,4.9,87,62,46,30.07,29.77,7,1,21,0.03
2013-1-22,24.6,18.7,10.9,18.9,9.2,-0.3,88,68,44,30.06,29.74,8,1,15,0.00
2013-1-23,15.8,10.0,5.0,0.3,-5.3,-8.3,68,50,35,30.12,30.05,8,2,16,0.00
2013-1-24,19.4,9.7,0.8,-2.4,-6.8,-9.3,64,48,34,30.22,30.05,9,2,24,0.00
2013-1-25,23.6,15.4,7.2,9.0,-3.6,-8.8,66,43,30,30.29,30.05,7,1,15,0.00
2013-1-26,24.6,16.4,9.7,10.3,3.1,-3.5,82,58,35,30.22,30.00,7,1,14,0.00
2013-1-27,30.6,19.6,10.4,6.8,2.6,-0.7,68,49,33,30.46,30.22,6,1,17,0.00
2013-1-28,29.2,23.6,17.8,23.6,13.5,2.8,90,67,44,30.44,30.01,2,0,6,0.11
2013-1-29,33.6,29.1,23.8,30.6,26.1,21.0,93,88,83,30.18,30.01,0,0,2,0.01
2013-1-30,57.6,45.1,32.4,55.6,43.6,30.6,100,94,92,30.14,29.41,6,1,17,0.07
2013-1-31,60.1,46.0,28.7,58.0,37.8,18.2,95,74,45,29.56,28.92,14,5,35,0.42
2013-2-1,32.4,27.1,21.0,19.0,11.1,5.7,67,51,39,30.06,29.55,9,3,21,0.00
2013-2-2,29.3,23.4,15.8,13.0,8.1,4.3,62,52,43,30.22,30.03,5,0,12,0.00
2013-2-3,26.7,24.3,19.7,21.7,19.3,13.0,89,81,59,30.04,29.71,2,0,5,0.00
2013-2-4,29.8,23.1,18.9,20.1,12.0,6.7,88,64,44,29.92,29.70,10,2,22,0.00
2013-2-5,29.6,24.1,18.9,20.5,12.9,6.9,83,63,51,30.01,29.92,2,0,6,0.00
2013-2-6,37.7,28.7,22.2,25.9,18.5,6.6,90,68,43,30.28,29.90,8,1,16,0.00
2013-2-7,31.2,23.7,15.7,8.3,5.4,2.1,62,46,35,30.51,30.28,5,0,12,0.00
2013-2-8,24.9,22.3,17.1,20.4,16.7,6.4,89,80,45,30.48,29.65,7,1,20,0.83
2013-2-9,22.4,18.1,13.2,17.9,13.4,5.6,91,82,69,30.19,29.61,7,3,21,0.92
2013-2-10,41.0,23.6,8.5,18.9,9.8,1.6,77,58,24,30.38,30.19,6,0,12,0.00
2013-2-11,33.4,28.6,21.4,31.1,22.5,8.0,93,79,55,30.33,29.60,2,0,5,0.22
2013-2-12,44.0,36.6,32.3,32.1,29.8,25.7,94,77,59,29.86,29.59,10,2,20,0.00
2013-2-13,43.8,34.7,27.4,27.3,24.4,22.0,81,67,51,29.84,29.69,5,0,10,0.00
2013-2-14,44.7,35.4,27.3,25.3,22.9,20.1,74,61,44,29.97,29.69,3,0,13,0.00
2013-2-15,51.4,39.0,27.8,35.6,29.5,22.5,92,70,52,29.97,29.87,5,0,15,0.00
2013-2-16,38.6,34.5,28.2,31.7,27.0,17.6,92,75,58,29.93,29.72,3,0,12,0.02
2013-2-17,28.1,21.0,16.1,20.4,10.1,1.8,88,64,48,29.71,29.38,10,4,25,0.04
2013-2-18,31.4,21.6,13.1,6.9,3.0,0.8,58,45,29,30.14,29.67,10,4,22,0.00
2013-2-19,45.5,34.6,20.5,39.7,23.0,3.9,94,64,44,30.15,29.56,5,0,12,0.18
2013-2-20,39.6,31.4,25.2,38.0,21.3,12.8,94,67,47,29.75,29.52,12,4,22,0.00
2013-2-21,34.2,26.5,22.5,17.0,14.4,11.0,72,60,47,30.19,29.75,7,2,21,0.00
2013-2-22,41.5,31.5,21.2,24.7,20.9,15.5,83,66,44,30.38,30.20,5,0,13,0.00
2013-2-23,37.6,33.4,29.1,31.3,28.0,23.0,92,81,71,30.32,29.91,5,0,12,0.04
2013-2-24,34.4,33.0,30.7,32.6,31.2,28.9,94,93,92,29.91,29.69,2,0,7,0.58
2013-2-25,39.5,33.7,28.8,33.5,30.8,27.0,94,89,76,30.22,29.88,0,0,2,0.00
2013-2-26,43.7,35.6,28.6,36.5,29.9,26.6,94,80,62,30.32,30.15,5,0,10,0.00
2013-2-27,40.0,36.7,34.3,38.4,34.5,29.5,94,92,82,30.15,29.56,10,3,20,1.17
2013-2-28,46.0,37.8,32.6,38.2,34.3,31.1,95,88,72,29.62,29.52,2,0,6,0.01
2013-3-1,39.9,36.6,31.7,33.8,30.3,27.5,93,79,67,29.67,29.52,5,0,13,0.00
2013-3-2,42.0,36.4,30.3,31.3,27.7,25.0,81,71,62,29.66,29.61,3,0,9,0.00
2013-3-3,39.3,34.4,30.9,33.0,28.3,24.9,86,78,72,29.63,29.55,3,0,12,0.00
2013-3-4,40.0,33.6,28.7,27.8,24.6,21.1,79,70,56,29.73,29.57,8,2,17,0.00
2013-3-5,45.5,36.6,30.3,31.7,27.5,22.8,86,70,54,30.06,29.73,5,0,12,0.00
2013-3-6,39.2,35.5,32.5,35.9,32.3,30.4,92,88,78,30.10,30.03,8,2,21,0.15
2013-3-7,34.4,31.8,30.1,31.2,28.9,26.8,92,89,82,30.08,29.99,3,1,15,0.14
2013-3-8,39.1,32.6,29.5,32.0,29.2,26.4,93,87,70,30.15,29.94,2,0,12,1.15
2013-3-9,52.9,37.7,28.1,31.3,26.6,22.7,88,67,34,30.34,30.14,6,0,9,0.00
2013-3-10,47.3,35.4,24.4,34.3,28.9,21.9,93,78,57,30.40,30.28,5,1,9,0.00
2013-3-11,51.1,41.3,33.1,39.1,34.3,30.1,90,78,55,30.31,30.12,3,0,9,0.00
2013-3-12,53.9,48.0,40.4,51.1,46.1,38.0,96,93,85,30.13,29.69,7,2,16,0.39
2013-3-13,51.1,42.7,33.8,49.6,31.1,20.9,95,66,37,29.76,29.68,7,2,14,0.00
2013-3-14,36.2,30.6,21.7,25.0,16.8,8.3,75,57,42,29.82,29.69,10,3,18,0.00
2013-3-15,40.2,28.9,18.2,29.2,14.5,5.6,85,56,31,29.86,29.62,6,2,16,0.00
2013-3-16,38.5,32.8,26.6,26.2,17.0,12.6,76,53,37,29.87,29.66,6,1,12,0.00
2013-3-17,38.6,29.7,21.5,16.7,12.2,5.8,77,49,30,30.30,29.87,8,1,15,0.00
2013-3-18,38.6,27.9,16.0,25.9,10.1,3.6,88,49,26,30.45,30.23,3,0,8,0.05
2013-3-19,34.8,31.5,26.2,32.3,29.3,23.7,93,91,88,30.22,29.63,7,1,16,1.27
2013-3-20,37.0,29.7,23.9,27.3,23.5,20.4,92,78,60,29.80,29.69,6,0,17,0.00
2013-3-21,40.8,29.9,21.0,27.6,21.3,16.8,90,72,41,29.80,29.59,3,0,7,0.00
2013-3-22,40.5,32.5,25.7,23.9,21.0,19.0,89,64,45,29.72,29.59,7,1,13,0.00
2013-3-23,44.3,34.2,25.0,24.0,21.0,19.1,81,60,41,29.77,29.61,10,3,22,0.00
2013-3-24,47.1,37.8,30.9,28.0,24.4,21.0,78,59,44,29.80,29.71,7,1,15,0.00
2013-3-25,45.7,36.7,29.8,33.8,28.7,23.1,79,73,60,29.76,29.51,6,1,16,0.00
2013-3-26,50.9,40.5,33.4,30.2,26.4,22.6,78,59,36,29.76,29.53,5,0,14,0.00
2013-3-27,54.7,41.7,29.7,31.9,26.0,21.3,73,55,35,29.86,29.72,6,1,14,0.00
2013-3-28,49.7,41.8,34.4,35.7,33.1,31.2,92,72,49,30.00,29.86,6,0,10,0.00
2013-3-29,57.0,45.0,34.4,37.0,32.4,29.2,84,63,40,30.03,29.95,5,0,12,0.00
2013-3-30,57.7,46.0,35.7,32.7,25.9,17.9,80,49,24,30.08,29.98,7,1,13,0.00
2013-3-31,59.5,45.8,30.2,40.3,28.0,21.1,86,53,28,30.10,29.72,6,1,21,0.04
2013-4-1,61.9,45.9,33.8,45.1,36.2,14.4,94,71,43,29.77,29.48,10,2,24,0.22
2013-4-2,41.3,33.8,28.4,18.8,15.2,11.9,60,47,34,29.92,29.77,12,4,26,0.00
2013-4-3,46.8,36.3,28.7,18.6,15.6,13.3,58,44,27,30.14,29.90,10,4,22,0.00
2013-4-4,55.5,42.0,28.0,24.9,19.3,15.9,63,42,23,30.28,30.02,6,1,15,0.00
2013-4-5,63.0,45.7,36.5,31.2,27.6,22.9,73,52,23,30.02,29.62,8,1,14,0.00
2013-4-6,47.6,38.1,30.2,26.6,14.1,8.8,62,39,22,30.32,29.86,7,2,21,0.00
2013-4-7,56.5,41.9,27.5,38.9,26.3,10.0,78,55,31,30.32,29.97,8,1,20,0.00
2013-4-8,66.8,52.3,42.0,42.7,39.3,36.2,92,65,34,30.07,29.93,5,0,13,0.00
2013-4-9,71.3,56.0,45.1,52.0,44.5,39.6,92,67,44,30.05,29.84,9,1,18,0.02
2013-4-10,63.1,51.8,45.5,50.7,46.2,41.8,93,82,62,30.01,29.83,3,0,7,0.23
2013-4-11,53.7,46.8,39.5,47.3,39.1,27.5,94,76,47,30.13,29.81,3,0,10,0.05
2013-4-12,39.7,37.4,35.5,36.4,34.3,31.1,94,89,77,30.16,29.80,7,2,15,0.40
2013-4-13,52.5,43.5,34.9,41.4,36.9,33.1,94,79,58,29.93,29.75,5,0,9,0.06
2013-4-14,53.0,45.2,36.9,39.6,33.5,27.9,87,65,43,30.20,29.90,8,1,20,0.00
2013-4-15,60.5,45.0,32.3,38.6,33.3,27.6,88,66,40,30.37,30.20,6,1,13,0.00
2013-4-16,67.8,52.6,38.2,51.1,42.6,34.8,89,70,45,30.38,30.03,8,2,20,0.00
2013-4-17,68.9,58.2,49.2,52.7,38.6,28.8,88,51,29,30.31,30.03,5,1,14,0.00
2013-4-18,65.0,52.4,40.1,43.8,34.5,28.8,75,52,36,30.41,30.12,6,1,16,0.00
2013-4-19,74.7,63.0,51.5,62.4,56.6,43.8,95,81,60,30.12,29.61,9,2,22,0.00
2013-4-20,67.1,53.2,42.5,62.6,41.6,24.2,93,67,41,30.19,29.58,8,2,20,0.35
2013-4-21,56.5,43.5,32.5,29.7,24.6,20.7,73,49,29,30.67,30.20,8,1,20,0.00
2013-4-22,56.0,43.2,32.1,34.4,30.3,24.7,85,63,34,30.74,30.58,8,2,18,0.00
2013-4-23,41.5,39.4,37.0,39.5,35.9,29.9,94,87,73,30.58,30.12,5,0,10,0.00
2013-4-24,75.6,57.1,40.6,55.1,44.9,39.0,99,69,28,30.11,29.76,5,1,15,0.00
2013-4-25,65.4,55.8,47.4,51.6,37.1,26.4,91,54,28,30.25,29.80,8,2,17,0.02
2013-4-26,65.0,51.3,36.6,39.5,33.7,26.1,77,52,36,30.41,30.25,7,1,13,0.00
2013-4-27,68.3,52.8,37.4,42.3,37.0,33.8,89,58,32,30.41,30.26,5,0,12,0.00
2013-4-28,71.6,52.1,39.6,43.4,38.6,35.6,88,64,31,30.32,30.22,6,0,12,0.00